Regional Weather Roundup
Issued by NWS

Home | Current Version | Previous Version | Text Only | Print | Product List | Glossary Off
Versions: 1 2 3 4 5 6 7 8 9 10 11 12 13 14 15 16 17 18 19 20 21 22 23 24 25 26 27 28 29 30 31 32 33 34 35 36 37 38 39 40 41 42 43 44 45 46 47 48 49 50

657
ASUS45 KBOU 101207
RWRCO

WEATHER ROUNDUP FOR COLORADO
NATIONAL WEATHER SERVICE DENVER/BOULDER CO
500 AM MST WED FEB 10 2016

NOTE: "FAIR" INDICATES FEW OR NO CLOUDS BELOW 12000 FEET WITH NO
SIGNIFICANT WEATHER AND/OR OBSTRUCTIONS TO VISIBILITY.

COZ001>005-013-030-031-101300-
...NORTHWEST COLORADO...

CITY           SKY/WX    TMP DP  RH WIND       PRES   REMARKS
CRAIG          FOG       -2  -6  83 CALM      30.46R VSB 1/4
HAYDEN         CLOUDY    16  10  79 E14       30.43S WCI   1
MEEKER         CLOUDY     4  -1  80 NE3       30.44S
MOUNT WERNER   NOT AVBL
STEAMBOAT SPGS CLOUDY    11   9  90 CALM      30.45S
WALDEN         CLOUDY    10   1  67 SE8       30.42S WCI  -1
$$

COZ006>008-011-101300-
...WEST CENTRAL VALLEYS...

CITY           SKY/WX    TMP DP  RH WIND       PRES   REMARKS
GRAND JUNCTION CLOUDY    21  19  92 E7        30.45R WCI  12
MONTROSE       CLOUDY    20  12  71 SE9       30.48S WCI   9
EAGLE          CLOUDY     9   9 100 CALM      30.56R
RIFLE          CLOUDY    15   9  76 SE5       30.49S WCI   8
DELTA          CLOUDY    26  19  77 NE6       30.48S WCI  19
NUCLA          CLOUDY    23  16  74 CALM      30.48R
$$

COZ017>023-064>068-101300-
...SOUTHWEST COLORADO...

CITY           SKY/WX    TMP DP  RH WIND       PRES   REMARKS
DURANGO        CLOUDY     8   4  83 NE5       30.44R WCI   0
CORTEZ         CLOUDY    17  13  84 CALM      30.44R
PAGOSA SPRINGS CLOUDY    17  14  88 NE3       30.45R
TELLURIDE      CLOUDY    28   4  36 SE7       30.50S WCI  20
WOLF CREEK PAS CLOUDY    30 -13  15 W9        30.58R WCI  22
$$

COZ009-010-012-014-032>034-037-058>063-101300-
...CENTRAL COLORADO...

CITY           SKY/WX    TMP DP  RH WIND       PRES   REMARKS
ASPEN          CLOUDY    15   6  67 S8        30.45F WCI   4
BUENA VISTA    CLOUDY    19   9  64 W6        30.42S WCI  11
COPPER MTN     CLOUDY    27  -8  22 W15       30.51S WCI  15
BERTHOUD PASS  FAIR      21  10  63 NW37G46   30.45R WCI   1
COTTONWOOD PAS CLOUDY    37 -18   8 W6        30.43S
GUNNISON       CLOUDY    -8  -8 100 N5        30.60R WCI -19
KREMMLING      FOG      N/A N/A N/A CALM      30.55S VSB 1/4
LEADVILLE      CLOUDY    20  -5  33 NE8       30.45R WCI  10
MONARCH PASS   CLOUDY    21   3  45 W21G32    30.61R WCI   6
SALIDA         NOT AVBL
SUNLIGHT       CLOUDY    30   5  34 SW3         N/A
WILKERSON PASS CLOUDY    30  -9  17 NW16G26   30.46S WCI  19
$$

COZ069>075-101300-
...SAN LUIS VALLEY/SANGRE DE CRISTO MOUNTAINS...

CITY           SKY/WX    TMP DP  RH WIND       PRES   REMARKS
ALAMOSA        CLOUDY    13  10  88 CALM      30.44S
LA VETA PASS   CLOUDY    27  10  50 S13       30.42S WCI  16
SAGUACHE       CLOUDY    27  10  50 N12       30.45S WCI  16
$$

COZ035-036-038>040-101300-
...NORTHERN COLORADO FRONT RANGE...

CITY           SKY/WX    TMP DP  RH WIND       PRES   REMARKS
DENVER INTL AP CLOUDY    38  14  37 SW12      30.17R
DMNS CITY PARK   N/A     38  10  31 SE14      30.18S
AURORA         NOT AVBL
FRONT RANGE AP   N/A     39  14  35 SW12      30.18R
ERIE MUNI ARPT CLOUDY    49  13  24 W13       30.15F
BOULDER MUN AP CLOUDY    54  10  17 W25G37    30.15R
CENTENNIAL     CLOUDY    37  11  34 SW9       30.20R
BROOMFIELD     CLOUDY    52  10  19 W28G36    30.17R
FORT COLLINS   CLOUDY    28  19  69 S6        30.14S WCI  22
LONGMONT       CLOUDY    50  14  24 SW5       30.16S
$$

COZ041-046-047-076>085-087-088-101300-
...PIKES PEAK/PALMER DIVIDE AND SOUTHERN FOOTHILLS...

CITY           SKY/WX    TMP DP  RH WIND       PRES   REMARKS
COLO. SPRINGS  CLOUDY    41   6  23 N13       30.23S
A. F. ACADEMY  CLOUDY    32   6  32 VRB5      30.24R WCI  28
SCHRIEVER AFB  NOT AVBL
ELLICOTT       CLOUDY   N/A N/A N/A CALM      30.22
FALCON         NOT AVBL
FORT CARSON    CLOUDY    34   8  34 NW7       30.20S WCI  27
LIMON          CLOUDY    29  15  56 NW13      30.17R WCI  19
MONUMENT HILL  CLOUDY    30   5  34 W10       30.26R WCI  21
TRINIDAD       CLOUDY    37  12  35 W18       30.25S
$$

COZ042>045-048>051-090-091-101300-
...NORTHEAST COLORADO...

CITY           SKY/WX    TMP DP  RH WIND       PRES   REMARKS
GREELEY ARPT   CLOUDY    18  12  79 W3        30.15S
AKRON          CLOUDY    34  19  54 W16       30.10S WCI  24
BURLINGTON     CLOUDY    31  19  61 W10       30.11F WCI  22
WRAY           CLOUDY    31  23  72 SW8       30.07F WCI  24
STERLING       CLOUDY    27  23  86 S7        30.09F WCI  19
HOLYOKE        CLOUDY    36  27  69 W15       30.05F
FORT MORGAN    CLOUDY    22  19  89 W10       30.11F WCI  11
$$

COZ086-089-092>099-101300-
...SOUTHEAST COLORADO...

CITY           SKY/WX    TMP DP  RH WIND       PRES   REMARKS
PUEBLO         CLOUDY    36  18  48 W10       30.20S
LA JUNTA       CLOUDY    36  21  54 W20       30.17F
LAMAR          CLOUDY    28  24  85 W13       30.15F WCI  17
SPRINGFIELD      N/A     34  20  56 W10       30.17S WCI  26
$$




USA.gov is the U.S. government's official web portal to all federal, state and local government web resources and services.